Location: Caltech
(34.1382°N, 118.1253°W)
Time: 11:08:01
(UTC-08:00)

Cosmos 1125 Rocket - Visible Passes

Search period start: 11 December 2017 00:00
Search period end: 21 December 2017 00:00
Orbit: 757 x 780 km, 74.0° (Epoch: 10 December)

Date Brightness Start Highest point End Pass type
(mag) Time Alt. Az. Time Alt. Az. Time Alt. Az.
11 Dec 3.8 04:46:06 28° N 04:48:50 65° ENE 04:53:59 10° SSE visible
11 Dec 4.3 17:35:41 10° SSE 17:40:18 31° E 17:44:12 13° NE visible
11 Dec 5.4 19:17:54 10° WSW 19:22:18 26° WNW 19:24:32 20° NNW visible
12 Dec 4.8 04:11:00 33° NE 04:12:00 36° ENE 04:16:45 10° SE visible
12 Dec 4.7 05:51:21 16° WNW 05:53:46 21° W 05:57:37 10° SW visible
12 Dec 4.5 18:40:21 10° SW 18:45:24 45° WNW 18:49:17 17° N visible
13 Dec 5.8 03:35:56 20° ENE 03:35:56 20° ENE 03:38:56 10° ESE visible
13 Dec 3.9 05:16:18 35° WNW 05:17:13 38° W 05:21:59 10° SSW visible
13 Dec 3.6 18:03:18 10° SSW 18:08:37 81° WNW 18:13:56 10° NNE visible
14 Dec 3.6 04:41:17 61° SSW 04:41:17 61° SSW 04:45:43 10° S visible
14 Dec 3.7 17:26:45 10° S 17:31:55 56° ESE 17:37:06 10° NNE visible
14 Dec 6.1 19:11:15 10° W 19:14:20 15° WNW 19:17:26 10° NNW visible
15 Dec 5.0 04:06:16 31° SE 04:06:16 31° SE 04:08:58 10° SSE visible
15 Dec 5.5 05:46:38 10° WSW 05:46:38 10° WSW 05:46:48 10° WSW visible
15 Dec 5.5 18:32:54 10° WSW 18:37:19 26° WNW 18:41:45 10° N visible
16 Dec 6.2 03:31:16 12° SE 03:31:16 12° SE 03:31:44 10° SE visible
16 Dec 5.4 05:11:37 14° SW 05:11:37 14° SW 05:12:37 10° SW visible
16 Dec 4.6 17:55:21 10° SW 18:00:25 45° WNW 18:05:30 10° N visible
17 Dec 5.8 04:36:35 12° SSW 04:36:35 12° SSW 04:36:59 10° SSW visible
17 Dec 3.7 17:18:19 10° SSW 17:23:37 82° WNW 17:28:56 10° NNE visible
18 Dec 6.1 18:26:15 10° W 18:29:20 16° WNW 18:32:27 10° NNW visible
19 Dec 5.5 17:47:55 10° WSW 17:52:19 26° WNW 17:56:45 10° N visible
20 Dec 4.6 17:10:21 10° SW 17:15:25 46° WNW 17:20:30 10° N visible
